| time (UTC) | temp F | wind direction | speed MPH | gust MPH | rain 1hr in | rain 24hr in | rain mn in | humidity % | barometer mb |
| 20260508005110 | 47 | 135 | 1.0 | 2.0 | 0.00 | 0.00 | 0.00 | 70 | 1016.9 |
| 20260508004110 | 47 | 135 | 2.0 | 3.0 | 0.00 | 0.00 | 0.00 | 71 | 1017.0 |
| 20260508003110 | 47 | 45 | 1.0 | 2.0 | 0.00 | 0.00 | 0.00 | 71 | 1017.0 |
| 20260508002110 | 47 | 135 | 0.0 | 1.0 | 0.00 | 0.00 | 0.00 | 71 | 1016.9 |
| 20260508001110 | 47 | 135 | 0.0 | 0.0 | 0.00 | 0.00 | 0.00 | 71 | 1016.9 |
| 20260508000110 | 47 | 135 | 0.0 | 0.0 | 0.00 | 0.00 | 0.00 | 71 | 1017.0 |
| 20260507234110 | 47 | 135 | 0.0 | 0.0 | 0.00 | 0.00 | 0.00 | 70 | 1016.9 |
| 20260507233111 | 48 | 67 | 1.0 | 1.0 | 0.00 | 0.00 | 0.00 | 72 | 1016.9 |
| 20260507232110 | 48 | 90 | 0.0 | 1.0 | 0.00 | 0.00 | 0.00 | 72 | 1016.9 |
| 20260507231109 | 47 | 45 | 1.0 | 0.0 | 0.00 | 0.00 | 0.00 | 72 | 1016.9 |
| 20260507230110 | 47 | 135 | 1.0 | 2.0 | 0.00 | 0.00 | 0.00 | 70 | 1017.2 |
| 20260507225109 | 47 | 135 | 0.0 | 0.0 | 0.00 | 0.00 | 0.00 | 70 | 1017.2 |
| 20260507224109 | 47 | 360 | 0.0 | 0.0 | 0.00 | 0.00 | 0.00 | 69 | 1017.3 |
| 20260507221109 | 48 | 135 | 0.0 | 1.0 | 0.00 | 0.00 | 0.00 | 70 | 1017.3 |
| 20260507220109 | 49 | 90 | 0.0 | 0.0 | 0.00 | 0.00 | 0.00 | 70 | 1017.3 |
| 20260507215115 | 49 | 45 | 0.0 | 1.0 | 0.00 | 0.00 | 0.00 | 70 | 1017.3 |
| 20260507214116 | 49 | 45 | 0.0 | 0.0 | 0.00 | 0.00 | 0.00 | 70 | 1017.1 |
| 20260507213116 | 50 | 45 | 0.0 | 1.0 | 0.00 | 0.00 | 0.00 | 70 | 1017.1 |
| 20260507212116 | 50 | 90 | 0.0 | 0.0 | 0.00 | 0.00 | 0.00 | 71 | 1017.1 |
| 20260507211115 | 50 | 225 | 0.0 | 0.0 | 0.00 | 0.00 | 0.00 | 71 | 1017.1 |
| 20260507210114 | 50 | 225 | 0.0 | 0.0 | 0.00 | 0.00 | 0.00 | 71 | 1016.9 |
| 20260507204114 | 51 | 67 | 1.0 | 0.0 | 0.00 | 0.00 | 0.00 | 69 | 1016.8 |
| 20260507203114 | 51 | 135 | 0.0 | 1.0 | 0.00 | 0.00 | 0.00 | 70 | 1016.8 |
| 20260507202114 | 51 | 112 | 0.0 | 0.0 | 0.00 | 0.00 | 0.00 | 69 | 1016.7 |
| 20260507201114 | 51 | 67 | 1.0 | 2.0 | 0.00 | 0.00 | 0.00 | 69 | 1016.7 |
| 20260507200114 | 51 | 360 | 0.0 | 0.0 | 0.00 | 0.00 | 0.00 | 68 | 1016.5 |
| 20260507195114 | 51 | 292 | 1.0 | 0.0 | 0.00 | 0.00 | 0.00 | 69 | 1016.5 |
| 20260507194114 | 52 | 135 | 0.0 | 0.0 | 0.00 | 0.00 | 0.00 | 66 | 1016.2 |
| 20260507191114 | 52 | 270 | 0.0 | 0.0 | 0.00 | 0.00 | 0.00 | 64 | 1015.9 |
| 20260507185113 | 52 | 247 | 0.0 | 0.0 | 0.00 | 0.00 | 0.00 | 66 | 1015.9 |
| 20260507184113 | 53 | 247 | 0.0 | 0.0 | 0.00 | 0.00 | 0.00 | 64 | 1015.6 |
| 20260507183113 | 53 | 247 | 0.0 | 1.0 | 0.00 | 0.00 | 0.00 | 65 | 1015.6 |
| 20260507182113 | 53 | 157 | 1.0 | 0.0 | 0.00 | 0.00 | 0.00 | 64 | 1015.4 |
| 20260507175113 | 54 | 225 | 1.0 | 0.0 | 0.00 | 0.00 | 0.00 | 62 | 1015.4 |
| 20260507174114 | 54 | 225 | 2.0 | 0.0 | 0.00 | 0.00 | 0.00 | 61 | 1015.5 |
| 20260507173113 | 54 | 202 | 3.0 | 3.0 | 0.00 | 0.00 | 0.00 | 61 | 1015.5 |
| 20260507172113 | 54 | 247 | 2.0 | 4.0 | 0.00 | 0.00 | 0.00 | 60 | 1015.2 |
| 20260507171113 | 54 | 247 | 3.0 | 4.0 | 0.00 | 0.00 | 0.00 | 60 | 1015.2 |
| 20260507164113 | 55 | 247 | 2.0 | 4.0 | 0.00 | 0.00 | 0.00 | 60 | 1014.8 |
| 20260507163112 | 55 | 135 | 1.0 | 2.0 | 0.00 | 0.00 | 0.00 | 61 | 1014.8 |
| 20260507162114 | 56 | 202 | 2.0 | 2.0 | 0.00 | 0.00 | 0.00 | 60 | 1014.8 |
| 20260507161112 | 56 | 157 | 0.0 | 1.0 | 0.00 | 0.00 | 0.00 | 56 | 1014.8 |
| 20260507160112 | 56 | 67 | 0.0 | 0.0 | 0.00 | 0.00 | 0.00 | 56 | 1015.1 |
| 20260507155112 | 56 | 292 | 1.0 | 1.0 | 0.00 | 0.00 | 0.00 | 56 | 1015.1 |
| 20260507153112 | 55 | 315 | 1.0 | 0.0 | 0.00 | 0.00 | 0.00 | 60 | 1015.1 |
| 20260507152112 | 55 | 202 | 1.0 | 0.0 | 0.00 | 0.00 | 0.00 | 60 | 1014.9 |
| 20260507151112 | 55 | 337 | 0.0 | 1.0 | 0.00 | 0.00 | 0.00 | 62 | 1014.9 |
| 20260507150112 | 56 | 112 | 2.0 | 2.0 | 0.00 | 0.00 | 0.00 | 60 | 1014.6 |
| 20260507145112 | 56 | 247 | 2.0 | 3.0 | 0.00 | 0.00 | 0.00 | 58 | 1014.6 |
| 20260507144112 | 56 | 270 | 1.0 | 2.0 | 0.00 | 0.00 | 0.00 | 58 | 1014.5 |
| 20260507143112 | 56 | 247 | 2.0 | 1.0 | 0.00 | 0.00 | 0.00 | 60 | 1014.5 |
| 20260507141112 | 57 | 202 | 2.0 | 2.0 | 0.00 | 0.00 | 0.00 | 61 | 1014.6 |
| 20260507140111 | 57 | 225 | 2.0 | 5.0 | 0.00 | 0.00 | 0.00 | 63 | 1014.7 |
| 20260507135112 | 56 | 247 | 2.0 | 2.0 | 0.00 | 0.00 | 0.00 | 62 | 1014.7 |
| 20260507134111 | 56 | 157 | 1.0 | 1.0 | 0.00 | 0.00 | 0.00 | 63 | 1014.5 |
| 20260507133111 | 55 | 157 | 1.0 | 3.0 | 0.00 | 0.00 | 0.00 | 64 | 1014.5 |
| 20260507132116 | 55 | 112 | 1.0 | 1.0 | 0.00 | 0.00 | 0.00 | 63 | 1014.6 |
| 20260507131116 | 54 | 202 | 2.0 | 0.0 | 0.00 | 0.00 | 0.00 | 65 | 1014.6 |
| 20260507130117 | 54 | 135 | 2.0 | 2.0 | 0.00 | 0.00 | 0.00 | 65 | 1014.6 |
| 20260507124116 | 54 | 135 | 1.0 | 3.0 | 0.00 | 0.00 | 0.00 | 60 | 1014.4 |
| 20260507123116 | 54 | 247 | 0.0 | 0.0 | 0.00 | 0.00 | 0.00 | 58 | 1014.4 |
| 20260507122116 | 54 | 112 | 0.0 | 0.0 | 0.00 | 0.00 | 0.00 | 58 | 1014.1 |
| 20260507121115 | 54 | 247 | 1.0 | 1.0 | 0.00 | 0.00 | 0.00 | 56 | 1014.1 |
| 20260507114115 | 55 | 360 | 3.0 | 4.0 | 0.00 | 0.00 | 0.00 | 54 | 1013.9 |
| 20260507113115 | 56 | 270 | 5.0 | 5.0 | 0.00 | 0.00 | 0.00 | 48 | 1013.9 |
| 20260507112115 | 58 | 337 | 5.0 | 11.0 | 0.00 | 0.00 | 0.00 | 44 | 1013.6 |
| 20260507111115 | 60 | 22 | 6.0 | 7.0 | 0.00 | 0.00 | 0.00 | 43 | 1013.6 |
| 20260507110115 | 60 | 315 | 6.0 | 7.0 | 0.00 | 0.00 | 0.00 | 43 | 1013.2 |
| 20260507104115 | 59 | 315 | 5.0 | 8.0 | 0.00 | 0.00 | 0.00 | 45 | 1013.2 |
| 20260507103116 | 59 | 315 | 5.0 | 7.0 | 0.00 | 0.00 | 0.00 | 44 | 1013.2 |
| 20260507102115 | 59 | 22 | 5.0 | 5.0 | 0.00 | 0.00 | 0.00 | 47 | 1013.1 |
| 20260507101115 | 59 | 315 | 6.0 | 10.0 | 0.00 | 0.00 | 0.00 | 42 | 1013.1 |
| 20260507100116 | 59 | 45 | 5.0 | 4.0 | 0.00 | 0.00 | 0.00 | 41 | 1012.8 |
| 20260507095115 | 60 | 45 | 4.0 | 10.0 | 0.00 | 0.00 | 0.00 | 41 | 1012.8 |
| 20260507094115 | 60 | 337 | 4.0 | 2.0 | 0.00 | 0.00 | 0.00 | 41 | 1013.1 |
| 20260507092115 | 62 | 292 | 4.0 | 7.0 | 0.00 | 0.00 | 0.00 | 41 | 1012.8 |
| 20260507090114 | 60 | 315 | 4.0 | 3.0 | 0.00 | 0.00 | 0.00 | 42 | 1012.9 |
| 20260507084114 | 61 | 247 | 4.0 | 8.0 | 0.00 | 0.00 | 0.00 | 42 | 1013.1 |
| 20260507083114 | 61 | 360 | 4.0 | 5.0 | 0.00 | 0.00 | 0.00 | 43 | 1013.1 |
| 20260507082115 | 60 | 315 | 3.0 | 4.0 | 0.00 | 0.00 | 0.00 | 42 | 1012.8 |
| 20260507081115 | 59 | 112 | 3.0 | 2.0 | 0.00 | 0.00 | 0.00 | 43 | 1012.8 |
| 20260507080114 | 59 | 292 | 3.0 | 4.0 | 0.00 | 0.00 | 0.00 | 43 | 1013.1 |
| 20260507075114 | 58 | 315 | 2.0 | 4.0 | 0.00 | 0.00 | 0.00 | 45 | 1013.1 |
| 20260507074114 | 57 | 292 | 2.0 | 1.0 | 0.00 | 0.00 | 0.00 | 45 | 1013.6 |
| 20260507073113 | 56 | 337 | 2.0 | 3.0 | 0.00 | 0.00 | 0.00 | 45 | 1013.6 |
| 20260507072114 | 56 | 292 | 2.0 | 4.0 | 0.00 | 0.00 | 0.00 | 46 | 1012.8 |
| 20260507071113 | 56 | 292 | 2.0 | 4.0 | 0.00 | 0.00 | 0.00 | 47 | 1012.8 |
| 20260507070113 | 55 | 360 | 2.0 | 5.0 | 0.00 | 0.00 | 0.00 | 48 | 1012.9 |
| 20260507065113 | 54 | 315 | 1.0 | 3.0 | 0.00 | 0.00 | 0.00 | 50 | 1012.9 |
| 20260507064113 | 54 | 247 | 0.0 | 1.0 | 0.00 | 0.00 | 0.00 | 52 | 1012.9 |
| 20260507063113 | 54 | 202 | 0.0 | 1.0 | 0.00 | 0.00 | 0.00 | 53 | 1012.9 |
| 20260507062114 | 53 | 180 | 0.0 | 0.0 | 0.00 | 0.00 | 0.00 | 52 | 1012.8 |
| 20260507060113 | 53 | 135 | 1.0 | 3.0 | 0.00 | 0.00 | 0.00 | 55 | 1012.6 |
| 20260507055113 | 53 | 135 | 1.0 | 3.0 | 0.00 | 0.00 | 0.00 | 54 | 1012.6 |
| 20260507054113 | 53 | 67 | 1.0 | 3.0 | 0.00 | 0.00 | 0.00 | 55 | 1012.4 |
| 20260507053113 | 52 | 157 | 1.0 | 0.0 | 0.00 | 0.00 | 0.00 | 57 | 1012.4 |
| 20260507052112 | 51 | 202 | 0.0 | 1.0 | 0.00 | 0.00 | 0.00 | 57 | 1012.5 |
| 20260507051112 | 51 | 157 | 0.0 | 2.0 | 0.00 | 0.00 | 0.00 | 57 | 1012.5 |
| 20260507050112 | 51 | 135 | 0.0 | 0.0 | 0.00 | 0.00 | 0.00 | 57 | 1012.2 |
| 20260507045112 | 50 | 112 | 0.0 | 2.0 | 0.00 | 0.00 | 0.00 | 57 | 1012.2 |
| 20260507044112 | 50 | 180 | 0.0 | 0.0 | 0.00 | 0.00 | 0.00 | 58 | 1012.1 |
| 20260507042112 | 50 | 180 | 0.0 | 0.0 | 0.00 | 0.00 | 0.00 | 58 | 1011.8 |
| 20260507041113 | 50 | 112 | 0.0 | 0.0 | 0.00 | 0.00 | 0.00 | 58 | 1011.8 |
| 20260507035112 | 50 | 112 | 1.0 | 1.0 | 0.00 | 0.00 | 0.00 | 56 | 1012.1 |
| 20260507034113 | 50 | 225 | 0.0 | 0.0 | 0.00 | 0.00 | 0.00 | 56 | 1011.7 |
| 20260507033113 | 50 | 247 | 0.0 | 0.0 | 0.00 | 0.00 | 0.00 | 57 | 1011.7 |
| 20260507032113 | 51 | 225 | 0.0 | 0.0 | 0.00 | 0.00 | 0.00 | 56 | 1011.6 |
| 20260507031113 | 51 | 202 | 0.0 | 1.0 | 0.00 | 0.00 | 0.00 | 54 | 1011.6 |
| 20260507030113 | 51 | 135 | 0.0 | 0.0 | 0.00 | 0.00 | 0.00 | 54 | 1011.5 |
| 20260507025113 | 52 | 202 | 0.0 | 0.0 | 0.00 | 0.00 | 0.00 | 54 | 1011.5 |
| 20260507024113 | 52 | 270 | 1.0 | 0.0 | 0.00 | 0.00 | 0.00 | 55 | 1011.5 |
| 20260507023113 | 52 | 202 | 0.0 | 0.0 | 0.00 | 0.00 | 0.00 | 54 | 1011.5 |
| 20260507021112 | 52 | 90 | 0.0 | 2.0 | 0.00 | 0.00 | 0.00 | 52 | 1011.4 |
| 20260507020112 | 52 | 202 | 0.0 | 0.0 | 0.00 | 0.00 | 0.00 | 52 | 1011.8 |
| 20260507015112 | 52 | 225 | 0.0 | 0.0 | 0.00 | 0.00 | 0.00 | 52 | 1011.8 |
| 20260507014112 | 52 | 202 | 0.0 | 0.0 | 0.00 | 0.00 | 0.00 | 51 | 1011.1 |
| 20260507013112 | 52 | 225 | 1.0 | 2.0 | 0.00 | 0.00 | 0.00 | 51 | 1011.1 |
| 20260507012113 | 52 | 90 | 0.0 | 0.0 | 0.00 | 0.00 | 0.00 | 51 | 1011.1 |
| 20260507011112 | 52 | 45 | 0.0 | 0.0 | 0.00 | 0.00 | 0.00 | 51 | 1011.1 |